Hourly Data Report for September 01, 2017

All times are specified in Local Standard Time (LST). Add 1 hour to adjust for Daylight Saving Time where and when it is observed.

KUGLUKTUK A
NUNAVUT

67°49'00.000" N
115°08'38.000" W
22.60 m
2300903
71938
YCO

Download Data

Hourly Data (September 2017)
Hourly Data Report for September 1, 2017
Temp Definition
°C
Dew Point Temp Definition
°C
Rel Hum Definition
%
Wind Dir Definition
10's deg

Wind Spd Definition
km/h
Visibility Definition
km
Stn Press Definition
kPa
Hmdx Definition


Wind Chill Definition


Weather Definition


TIME
00:00 Legend Double Dagger 6.0 4.5 90 7 36 19.3 99.92     Rain
01:00 Legend Double Dagger 6.0 4.4 89 7 35 24.1 99.98     LegendNANA
02:00 Legend Double Dagger 5.8 4.0 88 7 38 24.1 100.03     Cloudy
03:00 Legend Double Dagger 5.5 3.9 90 7 31 24.1 100.07     LegendNANA
04:00 Legend Double Dagger 5.2 3.8 90 6 40 9.7 100.12     Fog
05:00 Legend Double Dagger 4.7 4.1 96 7 34 4.8 100.17     Drizzle,Fog
06:00 Legend Double Dagger 4.6 3.8 94 7 39 6.4 100.21     Drizzle,Fog
07:00 Legend Double Dagger 4.7 3.4 91 7 39 12.9 100.23     Drizzle
08:00 Legend Double Dagger 4.7 3.2 90 7 35 19.3 100.26     Cloudy
09:00 Legend Double Dagger 4.7 3.3 91 7 36 19.3 100.32     LegendNANA
10:00 Legend Double Dagger 4.7 3.2 90 8 40 19.3 100.36     LegendNANA
11:00 Legend Double Dagger 5.1 3.2 88 7 39 19.3 100.39     Cloudy
12:00 Legend Double Dagger 5.3 3.2 86 6 31 19.3 100.43     LegendNANA
13:00 Legend Double Dagger 5.7 3.0 83 6 34 24.1 100.47     LegendNANA
14:00 Legend Double Dagger 5.8 2.8 81 7 34 24.1 100.53     Cloudy
15:00 Legend Double Dagger 5.9 3.0 82 7 28 24.1 100.58     LegendNANA
16:00 Legend Double Dagger 6.3 3.3 81 7 28 24.1 100.62     LegendNANA
17:00 Legend Double Dagger 6.2 3.0 80 7 27 24.1 100.65     Mostly Cloudy
18:00 Legend Double Dagger 5.6 2.5 81 9 33 24.1 100.66     LegendNANA
19:00 Legend Double Dagger 5.2 2.7 84 8 30 24.1 100.71     LegendNANA
20:00 Legend Double Dagger 4.9 2.6 85 8 26 19.3 100.74     Cloudy
21:00 Legend Double Dagger 4.8 2.8 87 10 21 19.3 100.73     LegendNANA
22:00 Legend Double Dagger 3.2 1.8 91 11 17 24.1 100.72     LegendNANA
23:00 Legend Double Dagger 2.5 1.8 95 11 12 24.1 100.71     Mainly Clear

Notes on Data Quality.

Legend

  • E = Estimated
  • M = Missing
  • NA = Not Available
  • ‡ = Partner data that is not subject to review by the National Climate Archives
Date modified: